Flag for Canada Weather past 2 weeks in Yorkton, Saskatchewan, Canada

Now
63 °F

Partly sunny.


Feels Like: 63 °F
Forecast: 61 / 77 °F
Wind: 5 mph from East

Location: Yorkton

Current Time: Aug 30, 2015 at 6:29:45 AM

Latest Report: Aug 30, 2015 at 6:00 AM


Visibility: 9 mi

Pressure: 29.68 "Hg (27.96 "Hg at 505m altitude)

Humidity: 77%

Dew point: 55 °F

Location of YorktonLocation

Historic Weather in Yorkton — Graph

°F

Yorkton temperature yesterday

Maximum temperature yesterday: 84 °F (at 3:00 PM)
Minimum temperature yesterday: 59 °F (at 6:00 AM)
Average temperature yesterday: 70 °F

Past Weeks' High & Low Weather Summary

 TemperatureHumidityPressure
High84 °F (Aug 29, 3:00 PM)100% (Aug 17, 4:00 AM)30.22 "Hg (Aug 17, 4:00 AM)
Low41 °F (Aug 24, 5:00 AM)34% (Aug 28, 3:00 PM)29.64 "Hg (Aug 15, 4:49 PM)
Average61 °F74%29.92 "Hg
* Reported Aug 15 5:00 AM — Aug 30 5:00 AM, Yorkton, Weather by CustomWeather, © 2015

Note: Actual official high and low records may vary slightly from our data, if they occured in-between our weather recording intervals... More about our weather records

Advertising

Yorkton weather history for previous 24 hours

 ConditionsComfort  
Time TempWeatherWind HumidityBarometerVisibility
5:00 AM
Sun, Aug 30
61 °FPassing clouds.6 mph83%29.69 "Hg9 mi
4:00 AM59 °FMostly cloudy.No wind88%29.70 "Hg9 mi
3:00 AM57 °FPassing clouds.No wind88%29.70 "Hg9 mi
2:00 AM61 °FClear.6 mph77%29.70 "Hg9 mi
1:00 AM63 °FClear.9 mph77%29.70 "Hg9 mi
12:00 AM64 °FPassing clouds.7 mph73%29.72 "Hg9 mi
11:00 PM
Sat, Aug 29
64 °FPassing clouds.2 mph78%29.73 "Hg9 mi
10:00 PM68 °FPassing clouds.7 mph69%29.74 "Hg9 mi
9:00 PM70 °FClear.8 mph64%29.75 "Hg9 mi
8:00 PM73 °FClear.7 mph53%29.75 "Hg9 mi
7:00 PM75 °FSunny.8 mph50%29.74 "Hg9 mi
6:00 PM77 °FSunny.8 mph54%29.73 "Hg9 mi
5:00 PM81 °FSunny.12 mph39%29.73 "Hg9 mi
4:00 PM84 °FSunny.15 mph35%29.72 "Hg9 mi
3:00 PM84 °FSunny.16 mph35%29.72 "Hg9 mi
2:00 PM82 °FSunny.13 mph37%29.73 "Hg5 mi
1:00 PM77 °FSunny.15 mph44%29.74 "Hg3 mi
12:00 PM73 °FSunny.12 mph53%29.76 "Hg3 mi
11:00 AM73 °FSunny.12 mph53%29.77 "Hg3 mi
10:00 AM68 °FPartly sunny.10 mph69%29.78 "Hg5 mi
9:00 AM64 °FPartly sunny.9 mph83%29.79 "Hg7 mi
8:00 AM63 °FOvercast.10 mph88%29.80 "Hg7 mi
7:00 AM61 °FPassing clouds.9 mph88%29.81 "Hg7 mi
6:00 AM59 °FSunny.9 mph94%29.81 "Hg7 mi
Weather by CustomWeather, © 2015

See weather overviewHow to use our weather pages